Regional Weather Roundup
Issued by NWS

Home | Current Version | Previous Version | Graphics & Text | Print | Product List | Glossary On
Versions: 1 2 3 4 5 6 7 8 9 10 11 12 13 14 15 16 17 18 19 20 21 22 23 24 25 26 27 28
000
ASUS45 KPSR 261510
RWRAZ

ARIZONA HOURLY REGIONAL WEATHER ROUNDUP
NATIONAL WEATHER SERVICE PHOENIX AZ
800 AM MST SAT MAY 26 2018

NOTE: FAIR INDICATES FEW OR NO CLOUDS BELOW 12,000 FEET WITH NO
SIGNIFICANT WEATHER AND/OR OBSTRUCTIONS TO VISIBILITY.

AZZ001>003-036-261600-
NORTHWEST ARIZONA

CITY           SKY/WX    TMP DP  RH WIND       PRES   REMARKS
BULLHEAD CITY  SUNNY     73  36  25 S9        29.83R
KINGMAN        SUNNY     67  35  30 SW15      29.90S
$$

AZZ004>008-015-016-018-261600-
NORTH CENTRAL ARIZONA

CITY           SKY/WX    TMP DP  RH WIND       PRES   REMARKS
GRAND CANYON   SUNNY     59  24  26 S9        30.05S
WILLIAMS       SUNNY     61  19  20 S14G21    30.02F
PRESCOTT       SUNNY     66  28  24 S7        29.99S
FLAGSTAFF      SUNNY     58  23  26 SW17G30   30.07F
PAYSON         MOSUNNY   64  21  19 VRB3      30.03R
PAGE           SUNNY     74  20  13 S9G18     29.91F
$$

AZZ009>014-017-261600-
NORTHEAST ARIZONA

CITY           SKY/WX    TMP DP  RH WIND       PRES   REMARKS
WINSLOW        MOSUNNY   58  24  27 S5        30.00S
SAINT JOHNS    CLOUDY    56  15  20 CALM      30.05F
WINDOW ROCK    CLOUDY    51  17  26 S6        30.13F
SHOW LOW       CLOUDY    63  23  22 S8        30.10S
$$

AZZ540-542>544-546-548-261600-
GREATER PHOENIX AREA

CITY           SKY/WX    TMP DP  RH WIND       PRES   REMARKS
PHOENIX        PTSUNNY   75  40  28 E3        29.83R
BUCKEYE        MOSUNNY   72  37  28 W5        29.86R
GLENDALE       CLOUDY    73  36  25 S12       29.85S
LUKE AFB       MOSUNNY   75  37  25 S15       29.83R
DEER VALLEY    MOSUNNY   75  32  20 VRB3      29.85R
SCOTTSDALE     PTSUNNY   74  38  27 SE6       29.87R
MESA-FALCON    PTSUNNY   77  34  20 S7        29.86R
MESA-GATEWAY   MOSUNNY   73  30  20 SE5       29.87S
CHANDLER       PTSUNNY   73  37  27 SE7       29.85R
$$

AZZ539-553-261600-
SOUTHWEST MARICOPA COUNTY AND PINAL COUNTY

CITY           SKY/WX    TMP DP  RH WIND       PRES   REMARKS
CASA GRANDE    NOT AVBL
GILA BEND      FAIR      72  35  25 W8        29.85S
$$

AZZ503-504-507>509-261600-
SOUTHEAST ARIZONA

CITY           SKY/WX    TMP DP  RH WIND       PRES   REMARKS
TUCSON         PTSUNNY   76  28  17 NW6       29.94R
DAVIS-MONTHAN  CLOUDY    78  26  15 NW8       29.92R
RYAN FIELD     SUNNY     77  32  19 NW5       29.93R
NOGALES        MOSUNNY   76  35  22 S6        29.98S
SIERRA VISTA   CLOUDY    74  27  17 NE5       30.04
DOUGLAS        SUNNY     78  28  16 SE6       30.00F
SAFFORD        CLOUDY    76  26  15 CALM      29.91S
$$

AZZ532-261600-
SOUTHWEST ARIZONA

CITY           SKY/WX    TMP DP  RH WIND       PRES   REMARKS
YUMA           MOSUNNY   68  43  40 NW14      29.89R
$$

CAZ041-043-047-048-061-525>527-560>570-261600-
SOUTHERN CALIFORNIA

CITY           SKY/WX    TMP DP  RH WIND       PRES   REMARKS
DOWNTOWN L.A.  SUNNY     61  52  72 SE5       30.01S
L.A. AIRPORT   MOSUNNY   60  51  72 VRB6      30.01F
SAN DIEGO      PTSUNNY   62  52  69 NW10      30.06R
BURBANK        SUNNY     57  51  80 SE7       30.01R
ONTARIO        PTSUNNY   56  49  77 W3        30.02R
RIVERSIDE      CLOUDY    58  49  72 CALM      30.02R
PALM SPRINGS   SUNNY     69  45  41 VRB5      29.88S
EL CENTRO NAS  MOSUNNY   70  39  32 W20       29.92R
IMPERIAL       SUNNY     69  43  38 W20G31    29.88R
BLYTHE         SUNNY     70  44  39 S3        29.86S
NEEDLES        SUNNY     75  37  25 CALM      29.84R
$$

NVZ020-UTZ003-261600-
SOUTHERN NEVADA-UTAH

CITY           SKY/WX    TMP DP  RH WIND       PRES   REMARKS
LAS VEGAS      SUNNY     65  39  38 S14G25    29.83R
SALT LAKE CITY SUNNY     74  27  17 S16       29.84F
$$

NMZ009-TXZ055-261600-
NEW MEXICO-WEST TEXAS

CITY           SKY/WX    TMP DP  RH WIND       PRES   REMARKS
ALBUQUERQUE    CLOUDY    67  25  20 N8        30.08S
EL PASO        MOSUNNY   77  17  10 SE10      29.98R
$$


........................KEY........................
SKY/WX - SKY CONDITION/WEATHER
TMP    - TEMPERATURE IN FAHRENHEIT
DP     - DEW POINT IN FAHRENHEIT
RH     - RELATIVE HUMIDITY IN PERCENT
WIND   - DIRECTION AND SPEED IN MILES PER HOUR (MPH)
VRB    - VARIABLE WIND DIRECTION
PRES   - MEAN SEA LEVEL PRESSURE IN INCHES OF MERCURY
         F - FALLING PRESSURE   R - RISING PRESSURE
         S - STEADY PRESSURE
VSB    - VISIBILITY IN MILES
HX     - HEAT INDEX IN FAHRENHEIT
WCI    - WIND CHILL INDEX IN FAHRENHEIT
TC     - TEMPERATURE IN CELSIUS WHICH IS ALSO KNOWN AS
         TEMPERATURE IN CENTIGRADE
AFB    - AIR FORCE BASE
         LUKE AFB IS LUKE AIR FORCE BASE
         DAVIS-MONTHAN IS DAVIS-MONTHAN AIR FORCE BASE
NAS    - NAVAL AIR STATION
         EL CENTRO NAS IS EL CENTRO NAVAL AIR STATION
N/A    - NOT AVAILABLE





USA.gov is the U.S. government's official web portal to all federal, state and local government web resources and services.